sat.trackr.live / text

‹ back to catalog

STARLINK-6261

NORAD 56417 · 2023-061AV

PAYLOAD ACTIVE UNKNOWN

§ Identity

Operator
Country
US
Launch date
2023-05-04
Launch site
AFETR
Launch vehicle
Mass (kg)
RCS (m²)

Purposes: comms

External: N2YO · Heavens-Above · Gunter

§ Orbital elements

Epoch: 2026-05-24T23:32:11.143392Z

Period
94.27 min
Inclination
43.0052°
Eccentricity
0.0001903
Mean motion
15.27577127 rev/d
Perigee alt
481.8 km
Apogee alt
484.4 km
Semi-major
6,861.2 km
B*
1.9456e-5
RAAN
116.0647°
Arg perigee
279.9855°
Mean anomaly
80.0782°
Rev number
16,854

§ Raw data

STARLINK-62611 56417U 23061AV  26144.98068453  .00000273  00000+0  19456-4 0  99952 56417  43.0052 116.0647 0001903 279.9855  80.0782 15.27577127168545

JSON: /api/v1/satellites/56417 · /tle

For live sub-satellite position, see the globe view (requires WebGL).

§ Visibility from observer

Set your observer location to see the next 7 days of passes ≥ 10°. The values pass through the URL so the page stays shareable.

No JS? Fill the form by hand. The geolocation button needs JavaScript.